This is the latest recevied weather packets stored in our database for station/object KC5DP. If no packets are shown the sender has not sent any weather packets the latest 10 day(s).
| Time | Temp. | Humidity | Pressure | Rain* | Wind** | Luminosity | Snow |
|---|---|---|---|---|---|---|---|
| 1777812672 | 14.44° C | 85% | 1021.2 hPa | 0 mm | - | 103 W/m² | - |
| 1777812368 | 13.33° C | 84% | 1021.1 hPa | 0 mm | - | 94 W/m² | - |
| 1777812067 | 13.33° C | 95% | 1021.1 hPa | 0 mm | - | 83 W/m² | - |
| 1777811765 | 12.22° C | 98% | 1020.9 hPa | 0 mm | - | 75 W/m² | - |
| 1777811461 | 12.78° C | 99% | 1021 hPa | 0 mm | - | 68 W/m² | - |
| 1777811157 | 11.67° C | 99% | 1020.9 hPa | 0 mm | - | 60 W/m² | - |
| 1777810855 | 10.56° C | 99% | 1020.9 hPa | 0 mm | - | 52 W/m² | - |
| 1777810551 | 10.56° C | 99% | 1021.1 hPa | 0 mm | - | 46 W/m² | - |
| 1777810248 | 10° C | 99% | 1020.8 hPa | 0 mm | - | 40 W/m² | - |
| 1777809944 | 9.44° C | 99% | 1020.7 hPa | 0 mm | - | 34 W/m² | - |
| 1777809643 | 8.33° C | 99% | 1020.7 hPa | 0 mm | - | 29 W/m² | - |
| 1777809340 | 8.33° C | 99% | 1020.8 hPa | 0 mm | - | 22 W/m² | - |
| 1777809037 | 8.33° C | 99% | 1020.7 hPa | 0 mm | - | 19 W/m² | - |
| 1777808735 | 8.33° C | 99% | 1020.8 hPa | 0 mm | - | 16 W/m² | - |
| 1777808431 | 7.78° C | 99% | 1020.7 hPa | 0 mm | - | 14 W/m² | - |
| 1777808129 | 7.78° C | 99% | 1020.4 hPa | 0 mm | - | 11 W/m² | - |
| 1777807827 | 7.78° C | 99% | 1020.3 hPa | 0 mm | - | 8 W/m² | - |
| 1777807525 | 7.78° C | 99% | 1020.4 hPa | 0 mm | - | 6 W/m² | - |
| 1777807221 | 7.78° C | 99% | 1020.1 hPa | 0 mm | - | 4 W/m² | - |
| 1777806918 | 7.78° C | 99% | 1020.2 hPa | 0 mm | - | 2 W/m² | - |
| 1777806614 | 7.78° C | 99% | 1020.3 hPa | 0 mm | - | 1 W/m² | - |
| 1777806310 | 7.78° C | 99% | 1020.1 hPa | 0 mm | - | 0 W/m² | - |
| 1777806007 | 7.78° C | 99% | 1020.3 hPa | 0 mm | - | 0 W/m² | - |
| 1777805703 | 8.33° C | 99% | 1020.3 hPa | 0 mm | - | 0 W/m² | - |
| 1777805401 | 7.78° C | 99% | 1020.2 hPa | 0 mm | - | 0 W/m² | - |
* Rain latest hour (hover to see other rain measurements)
** Current wind speed in m/s (hover to see current wind gust speed)